STARLINK-1172, 45074

Orbit data source: Space-Track

STARLINK-1172, 45074 is a payload satellite owned by SpaceX/Seattle (US) in LEO that was launched on Wed, 29 Jan 2020 UTC via an FALCON 9 launch vehicle from the Air Force Eastern Test Range (AFETR). Payload-class satellites include a variety of spacecraft equipped with specific instruments for various scientific and technological missions. These include communications satellites like Starlink; space stations such as the ISS; scientific satellites like the Hubble; Earth observation satellites from companies like Planet Labs, Umbra, and HawkEye 360; GPS; miniature CubeSats for education and research; and military/defense satellites.

Loading next visibility...
Identifier
45074, 2020-006AG
Orbit
LEO
Country
Flag of USUS
Related business
Manufacturer
SpaceX/Seattle
Mission
Operational Commercial Communications
Bus & Motor
STARLINK, Unknown motor
Mass
260 kg wet, ~248 kg dry
Launch date (UTC)
2020-01-29 (6 years ago)
Launch vehicle
FALCON 9
Launch site
Air Force Eastern Test Range (AFETR)
Object type
Payload
Rocket body
Debris
Shape & HBR
Box + 1 Pan, 4.4 m
Radar Cross Section
13.562 m², Large (>1 m²)

Expand to show TLE details & history
Last TLE update: 2 days ago

TLE from 2 days ago
0 STARLINK-1172
1 45074U 20006AG  25259.51113285  .00001139  00000-0  95299-4 0  9999
2 45074  53.0559 328.5392 0001274  86.3219 273.7916 15.06408372310481
Epoch: 2025-09-16T12:16Z
TLE epoch observation values (Epoch: 2025-09-16T12:16:01.878Z)
Latitude
0.00002°
Longitude
148.831°
Altitude
548.007 km
Speed
7.589 km/s
True Right ascension
21h 54m 09s
True Declination
0° 00' 00"
Sunlit
Object was in full shadow at epoch
Visualization orbit readout
Latitude
Unknown
Longitude
Unknown
Altitude
Unknown
Speed
Unknown
Apparent Right ascension
Unknown
Apparent Declination
Unknown
Sunlit
N/A
Visualization observer readout
Local Sidereal Time
09:39:18
Azimuth
Unknown
Elevation
Unknown
Doppler factor
Unknown
Orbital elements
Apogee altitude
548.339 km
Perigee altitude
546.574 km
Semi-major axis
6,925.593 km
Eccentricity
0.00013
Inclination
53.0559°
RAAN
328.5392°
Arg. of periapsis
86.3219°
True anomaly
273.77703°
Mean anomaly
273.7916°
Eccentric anomaly
273.78432°
Mean motion
3.7658 °/min
Orbital period
95.6 mins
BSTAR
0.000095299
Loading maneuver chart data...
Computing Atmospheric mass density...

Documentation

Showing up to 5 results
|